Regional Weather Roundup
Issued by NWS Glasgow, MT

Current Version | Previous Version | Text Only | Print | Product List | Glossary On
Versions: 1 2 3 4 5 6 7 8 9 10 11 12 13 14 15 16 17 18 19 20 21 22 23 24 25 26 27 28 29 30 31 32 33 34 35 36 37 38 39 40 41 42 43 44 45 46 47 48 49 50
000
ASUS45 KGGW 010215
RWRGGW
HOURLY WEATHER ROUNDUP FOR NORTHEAST MONTANA
NATIONAL WEATHER SERVICE GLASGOW MONTANA
800 PM MDT THU JUL 31 2014

NOTE: "FAIR" INDICATES FEW OR NO CLOUDS BELOW 12,000 FEET WITH NO
SIGNIFICANT WEATHER AND/OR OBSTRUCTIONS TO VISISBILITY.

NORTHEAST MONTANA


CITY           SKY/WX    TMP DP  RH WIND       PRES   REMARKS
GLASGOW        MOCLDY    85  45  24 SE5       29.96S
PLENTYWOOD       N/A     77  58  51 E7          N/A
WOLF POINT     CLOUDY    88  36  15 NE8       29.94S
JORDAN           N/A     88  36  15 W7        29.98F
WINNETT          N/A     80  42  25 E1          N/A
SIDNEY         PTCLDY    82  55  39 E7        29.98S
GLENDIVE       MOCLDY    90  37  15 CALM      29.98F
MALTA            N/A     85  46  25 N14G26      N/A
SCOBEY           N/A     78  56  46 NE7       30.00

FORT PECK REPORTS


CITY           SKY/WX    TMP DP  RH WIND       PRES   REMARKS
FORT PECK        N/A     80  55  42 S21         N/A
THE PINES        N/A     87  35  15 S10         N/A

SOUTHEAST MONTANA


CITY           SKY/WX    TMP DP  RH WIND       PRES   REMARKS
BILLINGS       PTCLDY    86  40  19 N5        30.06R
MILES CITY     PTCLDY    90  32  12 CALM      29.98S
BAKER          PTCLDY    84  42  22 E5        30.03F
LIVINGSTON     PTCLDY    80  43  26 W10       30.15R

CENTRAL MONTANA


CITY           SKY/WX    TMP DP  RH WIND       PRES   REMARKS
HAVRE          MOCLDY    86  47  25 E5        30.00S
LEWISTOWN      PTCLDY    82  40  22 NE8       30.10S
GREAT FALLS    PTCLDY    83  43  24 W3        30.10R
CUT BANK       PTCLDY    80  47  31 N9        30.11S
HELENA         PTCLDY    82  41  23 NW6       30.12R
BUTTE          CLOUDY    74  40  29 N13G28    30.25R
BOZEMAN        PTCLDY    76  44  32 N12       30.14S

WESTERN MONTANA


CITY           SKY/WX    TMP DP  RH WIND       PRES   REMARKS
MISSOULA       PTSUNNY   91  39  16 N8        30.04S
KALISPELL      NOT AVBL

NORTH DAKOTA


CITY           SKY/WX    TMP DP  RH WIND       PRES   REMARKS
WILLISTON      CLEAR     80  57  45 E12       30.00S
DICKINSON      CLEAR     72  60  66 SE7       30.02S
MINOT          PTCLDY    71  59  65 NE5       30.02S
BISMARCK       PTCLDY    76  54  46 E9        30.02F

SOUTHERN SASKATCHEWAN


CITY           SKY/WX    TMP DP  RH WIND       PRES   REMARKS
REGINA         PTCLDY    77  59  53 E12       30.04R
ESTEVAN        PTCLDY    72  63  73 E6        30.04S
SWIFT CURRENT  MOCLDY    79  59  50 E9        30.02R



USA.gov is the U.S. government's official web portal to all federal, state and local government web resources and services.